Simultaneous Nadir Overpasses (SNOs) Predictions

Prediction of SNOs between AQUA and GOES-15 Satellite Orbit:

Table of predicted SNOs for the next 14.0 days since TLE Epoch: 5/9/2014
Index Date Time (AQUA) AQUA Lat,Lon GOES-15 Lat,Lon Distance(km) Time Diff (sec)
1 05/09/2014 22:35:50 0.00,-134.95 -0.03,-135.12 18.36 80
2 05/11/2014 22:23:39 0.64,-132.00 -0.03,-135.05 347.39 80
3 05/12/2014 10:44:53 0.48,-137.15 0.03,-135.04 240.87 80
4 05/14/2014 10:32:42 -0.12,-134.19 0.02,-134.96 87.15 80
5 05/16/2014 10:20:30 -0.75,-131.24 0.02,-134.88 414.38 80
6 05/16/2014 22:41:53 -0.36,-136.43 -0.01,-134.86 178.93 80
7 05/18/2014 22:29:41 0.28,-133.47 -0.02,-134.77 147.75 80
8 05/19/2014 10:50:56 0.82,-138.63 0.01,-134.75 440.62 80
9 05/20/2014 22:17:29 0.89,-130.51 -0.02,-134.67 474.13 80
10 05/21/2014 10:38:43 0.21,-135.66 0.02,-134.65 114.35 80
11 05/23/2014 10:26:29 -0.35,-132.69 0.02,-134.56 211.72 80




NCC Satellite Simultaneous Nadir Overpasses (SNOs) Prediction Service
